Location: 10033 Water Well
(34.0865°N, 106.8959°W)
Time: 17:09:54
(UTC+00:00)

IRS-1C - Pass Details

Date: 13 January 2026
Orbit: 813 x 814 km, 99.0° (Epoch: 11 February)

Event Time Altitude Azimuth Distance (km) Brightness Sun altitude
Rises 00:46:28 0° 159° (SSE) 3,322 7.3 -6.1°
Reaches altitude 10° 00:48:48 10° 157° (SSE) 2,394 6.6 -6.5°
Maximum altitude 00:54:03 71° 74° (ENE) 862 4.1 -7.5°
Drops below altitude 10° 00:59:21 10° 352° (N) 2,407 6.5 -8.6°
Sets 01:01:42 0° 350° (N) 3,342 7.2 -9.0°
